This is the latest recevied weather packets stored in our database for station/object TF3VP-10. If no packets are shown the sender has not sent any weather packets the latest 10 day(s).
| Time | Temp. | Humidity | Pressure | Rain* | Wind** | Luminosity | Snow |
|---|---|---|---|---|---|---|---|
| 1778252179 | 6.11° C | 43% | 1037.5 hPa | - | - | - | - |
| 1778251279 | 5.56° C | 46% | 1037.5 hPa | - | - | - | - |
| 1778250379 | 5.56° C | 44% | 1037.7 hPa | - | - | - | - |
| 1778249479 | 6.11° C | 44% | 1037.7 hPa | - | - | - | - |
| 1778248579 | 6.67° C | 44% | 1037.7 hPa | - | - | - | - |
| 1778247679 | 6.67° C | 44% | 1037.6 hPa | - | - | - | - |
| 1778246779 | 6.11° C | 42% | 1037.5 hPa | - | - | - | - |
| 1778245880 | 6.11° C | 45% | 1037.3 hPa | - | - | - | - |
| 1778244979 | 6.11° C | 41% | 1037.6 hPa | - | - | - | - |
| 1778244079 | 5.56° C | 41% | 1037.5 hPa | - | - | - | - |
| 1778243179 | 5.56° C | 40% | 1037.7 hPa | - | - | - | - |
| 1778242279 | 5.56° C | 40% | 1037.8 hPa | - | - | - | - |
| 1778241379 | 5° C | 40% | 1037.8 hPa | - | - | - | - |
| 1778240479 | 4.44° C | 41% | 1037.8 hPa | - | - | - | - |
| 1778239579 | 3.89° C | 41% | 1037.6 hPa | - | - | - | - |
| 1778238679 | 3.33° C | 40% | 1037.6 hPa | - | - | - | - |
| 1778237779 | 3.33° C | 43% | 1037.6 hPa | - | - | - | - |
| 1778236879 | 3.33° C | 42% | 1037.6 hPa | - | - | - | - |
| 1778235980 | 3.33° C | 39% | 1037.6 hPa | - | - | - | - |
| 1778235079 | 3.33° C | 36% | 1037.5 hPa | - | - | - | - |
| 1778234180 | 2.78° C | 38% | 1037.4 hPa | - | - | - | - |
| 1778233279 | 2.22° C | 36% | 1037.3 hPa | - | - | - | - |
| 1778232379 | 1.67° C | 41% | 1037.1 hPa | - | - | - | - |
| 1778231479 | 1.11° C | 44% | 1037.5 hPa | - | - | - | - |
| 1778230579 | 1.11° C | 45% | 1037.8 hPa | - | - | - | - |
* Rain since midnight (hover to see other rain measurements)
** Current wind speed in m/s (hover to see current wind gust speed)